Time,TemperatureF,DewpointF,PressureIn,WindDirection,WindDirectionDegrees,WindSpeedMPH,WindSpeedGustMPH,Humidity,HourlyPrecipIn,Conditions,Clouds,dailyrainin,SolarRadiationWatts/m^2,SoftwareType,DateUTC
2013-02-23 00:00:00,68.8,67.3,29.99,SE,142,3.4,3.4,95,0.00,CLR,,0.00,0.0,WeatherDisplay:10.37,2013-02-23 05:00:00,
2013-02-23 00:05:00,68.8,67.3,29.99,SE,142,3.4,3.4,95,0.00,CLR,,0.00,0.0,WeatherDisplay:10.37,2013-02-23 05:05:00,
2013-02-23 00:10:00,68.7,67.2,29.99,SE,142,3.4,3.4,95,0.00,CLR,,0.00,0.0,WeatherDisplay:10.37,2013-02-23 05:10:00,
2013-02-23 00:19:00,68.4,66.9,29.99,SE,142,3.4,3.4,95,0.00,CLR,,0.00,0.0,WeatherDisplay:10.37,2013-02-23 05:19:00,
2013-02-23 00:25:00,68.2,66.7,29.99,SE,142,3.4,3.4,95,0.00,CLR,,0.00,0.0,WeatherDisplay:10.37,2013-02-23 05:25:00,
2013-02-23 00:38:00,68.2,67.0,29.98,SE,142,3.4,3.4,96,0.00,CLR,,0.00,0.0,WeatherDisplay:10.37,2013-02-23 05:38:00,
2013-02-23 00:47:00,68.3,67.1,29.98,SE,142,3.4,3.4,96,0.00,CLR,,0.00,0.0,WeatherDisplay:10.37,2013-02-23 05:47:00,
2013-02-23 00:54:00,68.3,67.1,29.98,SE,142,3.4,3.4,96,0.00,CLR,,0.00,0.0,WeatherDisplay:10.37,2013-02-23 05:54:00,
2013-02-23 00:59:00,68.3,67.1,29.98,SE,142,3.4,3.4,96,0.00,CLR,,0.00,0.0,WeatherDisplay:10.37,2013-02-23 05:59:00,
2013-02-23 01:00:00,68.3,67.1,29.97,SE,142,3.4,3.4,96,0.00,CLR,,0.00,0.0,WeatherDisplay:10.37,2013-02-23 06:00:00,
2013-02-23 01:04:00,68.3,67.1,29.98,SE,142,2.3,2.3,96,0.00,CLR,,0.00,0.0,WeatherDisplay:10.37,2013-02-23 06:04:00,
2013-02-23 01:09:00,68.3,67.1,29.98,SE,142,3.4,3.4,96,0.00,CLR,,0.00,0.0,WeatherDisplay:10.37,2013-02-23 06:09:00,
2013-02-23 01:25:00,68.2,67.0,29.97,SE,142,3.4,3.4,96,0.00,CLR,,0.00,0.0,WeatherDisplay:10.37,2013-02-23 06:25:00,
2013-02-23 01:37:00,68.1,66.9,29.97,SE,142,4.6,4.6,96,0.00,CLR,,0.00,0.0,WeatherDisplay:10.37,2013-02-23 06:37:00,
2013-02-23 01:48:00,68.1,66.9,29.97,SE,142,3.4,3.4,96,0.00,CLR,,0.00,0.0,WeatherDisplay:10.37,2013-02-23 06:48:00,
2013-02-23 01:54:00,68.1,66.9,29.97,SE,142,3.4,3.4,96,0.00,CLR,,0.00,0.0,WeatherDisplay:10.37,2013-02-23 06:54:00,
2013-02-23 01:59:00,68.2,67.0,29.97,SE,142,3.4,3.4,96,0.00,CLR,,0.00,0.0,WeatherDisplay:10.37,2013-02-23 06:59:00,
2013-02-23 02:00:00,68.0,66.8,29.96,SE,142,3.4,3.4,96,0.00,CLR,,0.00,0.0,WeatherDisplay:10.37,2013-02-23 07:00:00,
2013-02-23 02:04:00,68.2,67.0,29.96,SE,142,3.4,3.4,96,0.00,CLR,,0.00,0.0,WeatherDisplay:10.37,2013-02-23 07:04:00,
2013-02-23 02:09:00,68.0,66.8,29.96,SE,142,3.4,3.4,96,0.00,CLR,,0.00,0.0,WeatherDisplay:10.37,2013-02-23 07:09:00,
2013-02-23 02:14:00,67.9,66.7,29.96,SE,142,1.1,1.1,96,0.00,CLR,,0.00,0.0,WeatherDisplay:10.37,2013-02-23 07:14:00,
2013-02-23 02:56:00,66.8,65.9,29.96,SE,142,3.4,3.4,97,0.00,CLR,,0.00,0.0,WeatherDisplay:10.37,2013-02-23 07:56:00,
2013-02-23 03:00:00,66.6,65.7,29.95,SE,142,3.4,3.4,97,0.00,CLR,,0.00,0.0,WeatherDisplay:10.37,2013-02-23 08:00:00,
2013-02-23 03:01:00,66.9,66.0,29.96,SE,142,0.0,0.2,97,0.00,CLR,,0.00,0.0,WeatherDisplay:10.37,2013-02-23 08:01:00,
2013-02-23 03:06:00,66.8,65.9,29.95,SE,142,1.1,1.1,97,0.00,CLR,,0.00,0.0,WeatherDisplay:10.37,2013-02-23 08:06:00,
2013-02-23 03:13:00,66.9,66.0,29.95,SE,142,2.3,2.3,97,0.00,CLR,,0.00,0.0,WeatherDisplay:10.37,2013-02-23 08:13:00,
2013-02-23 03:50:00,67.9,67.3,29.95,SE,125,5.8,5.8,98,0.00,CLR,,0.00,0.0,WeatherDisplay:10.37,2013-02-23 08:50:00,
2013-02-23 03:56:00,68.3,67.7,29.94,SE,146,8.1,8.1,98,0.00,CLR,,0.00,0.0,WeatherDisplay:10.37,2013-02-23 08:56:00,
2013-02-23 04:00:00,68.8,67.9,29.94,SSE,154,5.8,5.8,97,0.00,CLR,,0.00,0.0,WeatherDisplay:10.37,2013-02-23 09:00:00,
2013-02-23 04:01:00,68.5,67.9,29.94,SE,143,7.0,7.0,98,0.00,CLR,,0.00,0.0,WeatherDisplay:10.37,2013-02-23 09:01:00,
2013-02-23 04:06:00,68.7,68.1,29.94,South,169,11.5,11.5,98,0.00,CLR,,0.00,0.0,WeatherDisplay:10.37,2013-02-23 09:06:00,
2013-02-23 04:17:00,68.9,68.0,29.94,SSE,148,8.1,8.1,97,0.00,CLR,,0.00,0.0,WeatherDisplay:10.37,2013-02-23 09:17:00,
2013-02-23 04:29:00,69.2,68.3,29.94,SSE,153,10.3,10.3,97,0.00,CLR,,0.00,0.0,WeatherDisplay:10.37,2013-02-23 09:29:00,
2013-02-23 04:34:00,69.3,68.4,29.94,SSE,147,9.2,9.2,97,0.00,CLR,,0.00,0.0,WeatherDisplay:10.37,2013-02-23 09:34:00,
2013-02-23 04:55:00,69.7,68.8,29.93,SE,141,6.9,6.9,97,0.00,CLR,,0.00,0.0,WeatherDisplay:10.37,2013-02-23 09:55:00,
2013-02-23 05:00:00,69.8,68.6,29.93,SSE,149,8.1,8.1,96,0.00,CLR,,0.00,0.0,WeatherDisplay:10.37,2013-02-23 10:00:00,
2013-02-23 05:05:00,70.0,68.8,29.93,SSE,158,11.5,11.5,96,0.00,CLR,,0.00,0.0,WeatherDisplay:10.37,2013-02-23 10:05:00,
2013-02-23 05:11:00,70.1,68.9,29.93,SE,136,9.2,9.2,96,0.00,CLR,,0.00,0.0,WeatherDisplay:10.37,2013-02-23 10:11:00,
2013-02-23 05:25:00,70.3,68.8,29.93,SE,135,6.9,6.9,95,0.00,CLR,,0.00,0.0,WeatherDisplay:10.37,2013-02-23 10:25:00,
2013-02-23 05:39:00,70.4,68.9,29.93,SSE,153,4.0,4.0,95,0.00,CLR,,0.00,0.0,WeatherDisplay:10.37,2013-02-23 10:39:00,
2013-02-23 05:55:00,70.6,68.8,29.93,SSE,151,11.0,11.0,94,0.00,CLR,,0.00,0.0,WeatherDisplay:10.37,2013-02-23 10:55:00,
2013-02-23 06:00:00,70.6,68.8,29.93,SE,143,11.5,11.5,94,0.00,CLR,,0.00,0.0,WeatherDisplay:10.37,2013-02-23 11:00:00,
2013-02-23 06:05:00,70.6,68.8,29.94,South,176,11.5,11.5,94,0.00,CLR,,0.00,0.0,WeatherDisplay:10.37,2013-02-23 11:05:00,
2013-02-23 06:12:00,70.6,68.8,29.94,SE,131,8.1,8.1,94,0.00,CLR,,0.00,0.0,WeatherDisplay:10.37,2013-02-23 11:12:00,
2013-02-23 06:20:00,70.6,68.8,29.94,SE,145,11.5,11.5,94,0.00,CLR,,0.00,0.0,WeatherDisplay:10.37,2013-02-23 11:20:00,
2013-02-23 06:27:00,70.7,68.9,29.94,SE,129,8.1,8.1,94,0.00,CLR,,0.00,0.0,WeatherDisplay:10.37,2013-02-23 11:27:00,
2013-02-23 06:33:00,70.7,68.9,29.94,SSE,153,8.1,8.1,94,0.00,CLR,,0.00,0.0,WeatherDisplay:10.37,2013-02-23 11:33:00,
2013-02-23 06:39:00,70.7,68.9,29.94,SSE,153,2.3,2.3,94,0.00,CLR,,0.00,0.0,WeatherDisplay:10.37,2013-02-23 11:39:00,
2013-02-23 06:55:00,70.8,69.0,29.95,SSE,148,10.3,10.3,94,0.00,CLR,,0.00,0.0,WeatherDisplay:10.37,2013-02-23 11:55:00,
2013-02-23 07:00:00,70.9,69.1,29.95,SSE,155,9.2,9.2,94,0.00,OVC,,0.00,0.0,WeatherDisplay:10.37,2013-02-23 12:00:00,
2013-02-23 07:05:00,70.9,69.1,29.95,SSE,165,9.2,9.2,94,0.00,OVC,,0.00,0.0,WeatherDisplay:10.37,2013-02-23 12:05:00,
2013-02-23 07:28:00,71.1,69.0,29.95,SE,144,11.5,11.5,93,0.00,OVC,,0.00,14.0,WeatherDisplay:10.37,2013-02-23 12:28:00,
2013-02-23 07:43:00,71.3,69.2,29.96,SSE,161,11.5,11.5,93,0.00,OVC,,0.00,37.0,WeatherDisplay:10.37,2013-02-23 12:43:00,
2013-02-23 07:56:00,71.5,69.4,29.96,SE,145,3.4,3.4,93,0.00,OVC,,0.00,53.0,WeatherDisplay:10.37,2013-02-23 12:56:00,
2013-02-23 08:00:00,71.8,69.7,29.96,SSE,162,4.6,4.6,93,0.00,OVC,,0.00,46.0,WeatherDisplay:10.37,2013-02-23 13:00:00,
2013-02-23 08:01:00,71.7,69.6,29.96,ESE,106,8.0,8.0,93,0.00,OVC,,0.00,44.0,WeatherDisplay:10.37,2013-02-23 13:01:00,
2013-02-23 08:06:00,71.7,69.6,29.96,SSE,151,6.9,6.9,93,0.00,OVC,,0.00,39.0,WeatherDisplay:10.37,2013-02-23 13:06:00,
2013-02-23 08:17:00,72.0,69.9,29.97,SE,140,3.4,3.4,93,0.00,OVC,,0.00,51.0,WeatherDisplay:10.37,2013-02-23 13:17:00,
2013-02-23 08:36:00,72.4,70.3,29.97,SSW,196,4.6,4.6,93,0.00,OVC,,0.00,69.0,WeatherDisplay:10.37,2013-02-23 13:36:00,
2013-02-23 08:42:00,72.4,70.3,29.98,WSW,245,11.5,11.5,93,0.00,OVC,,0.00,91.0,WeatherDisplay:10.37,2013-02-23 13:42:00,
2013-02-23 08:47:00,72.5,70.4,29.98,SSE,157,3.4,3.4,93,0.00,OVC,,0.00,97.0,WeatherDisplay:10.37,2013-02-23 13:47:00,
2013-02-23 08:53:00,72.5,70.4,29.97,SSE,163,5.8,5.8,93,0.00,OVC,,0.00,79.0,WeatherDisplay:10.37,2013-02-23 13:53:00,
2013-02-23 08:58:00,72.4,70.3,29.98,South,190,8.1,8.1,93,0.00,OVC,,0.00,86.0,WeatherDisplay:10.37,2013-02-23 13:58:00,
2013-02-23 09:00:00,72.1,70.3,29.98,SSE,164,5.8,5.8,94,0.00,OVC,,0.00,90.0,WeatherDisplay:10.37,2013-02-23 14:00:00,
2013-02-23 09:03:00,72.2,70.1,29.98,South,175,3.4,3.4,93,0.00,OVC,,0.00,76.0,WeatherDisplay:10.37,2013-02-23 14:03:00,
2013-02-23 09:08:00,72.1,70.3,29.98,SW,215,6.9,6.9,94,0.00,OVC,,0.00,74.0,WeatherDisplay:10.37,2013-02-23 14:08:00,
2013-02-23 09:14:00,72.0,70.2,29.98,South,188,3.4,3.4,94,0.00,OVC,,0.00,91.0,WeatherDisplay:10.37,2013-02-23 14:14:00,
2013-02-23 09:54:00,73.0,70.9,29.98,SSE,161,8.0,8.0,93,0.00,OVC,,0.00,257.0,WeatherDisplay:10.37,2013-02-23 14:54:00,
2013-02-23 09:59:00,73.5,71.0,29.98,SSE,157,9.0,9.0,92,0.00,OVC,,0.00,265.0,WeatherDisplay:10.37,2013-02-23 14:59:00,
2013-02-23 10:00:00,73.2,70.4,29.98,SSW,198,4.6,4.6,91,0.00,OVC,,0.00,253.0,WeatherDisplay:10.37,2013-02-23 15:00:00,
2013-02-23 10:04:00,73.3,70.5,29.98,SSE,155,11.5,11.5,91,0.00,OVC,,0.00,211.0,WeatherDisplay:10.37,2013-02-23 15:04:00,
2013-02-23 10:09:00,73.2,70.4,29.98,WSW,237,6.0,6.0,91,0.00,OVC,,0.00,236.0,WeatherDisplay:10.37,2013-02-23 15:09:00,
2013-02-23 10:24:00,73.6,70.8,29.98,SSE,156,10.3,10.3,91,0.00,OVC,,0.00,301.0,WeatherDisplay:10.37,2013-02-23 15:24:00,
2013-02-23 10:56:00,76.2,71.7,29.98,South,182,9.2,9.2,86,0.00,BKN,,0.00,469.0,WeatherDisplay:10.37,2013-02-23 15:56:00,
2013-02-23 11:00:00,76.6,72.1,29.97,SE,144,7.0,7.0,86,0.00,OVC,,0.00,436.0,WeatherDisplay:10.37,2013-02-23 16:00:00,
2013-02-23 11:01:00,76.4,71.9,29.98,SSE,158,9.2,9.2,86,0.00,BKN,,0.00,492.0,WeatherDisplay:10.37,2013-02-23 16:01:00,
2013-02-23 11:06:00,76.5,71.7,29.97,West,261,5.8,5.8,85,0.00,OVC,,0.00,336.0,WeatherDisplay:10.37,2013-02-23 16:06:00,
2013-02-23 11:16:00,77.7,72.5,29.97,South,175,3.4,3.4,84,0.00,OVC,,0.00,492.0,WeatherDisplay:10.37,2013-02-23 16:16:00,
2013-02-23 11:56:00,77.7,72.1,29.96,South,175,8.1,8.1,83,0.00,OVC,,0.00,353.0,WeatherDisplay:10.37,2013-02-23 16:56:00,
2013-02-23 12:00:00,78.2,71.9,29.96,South,190,9.0,9.0,81,0.00,OVC,,0.00,332.0,WeatherDisplay:10.37,2013-02-23 17:00:00,
2013-02-23 12:01:00,77.9,72.0,29.96,South,183,10.3,10.3,82,0.00,OVC,,0.00,448.0,WeatherDisplay:10.37,2013-02-23 17:01:00,
2013-02-23 12:06:00,78.5,72.2,29.97,SSE,157,8.1,8.1,81,0.00,OVC,,0.00,411.0,WeatherDisplay:10.37,2013-02-23 17:06:00,
2013-02-23 12:37:00,78.6,71.9,29.95,SW,215,6.9,6.9,80,0.00,OVC,,0.00,401.0,WeatherDisplay:10.37,2013-02-23 17:37:00,
2013-02-23 12:45:00,78.7,72.0,29.95,SW,216,10.3,10.3,80,0.00,FEW,,0.00,1025.0,WeatherDisplay:10.37,2013-02-23 17:45:00,
2013-02-23 12:56:00,79.5,72.4,29.94,South,177,6.9,6.9,79,0.00,FEW,,0.00,946.0,WeatherDisplay:10.37,2013-02-23 17:56:00,
2013-02-23 13:00:00,79.8,72.7,29.94,SW,221,6.9,6.9,79,0.00,OVC,,0.00,271.0,WeatherDisplay:10.37,2013-02-23 18:00:00,
2013-02-23 13:01:00,79.3,72.6,29.94,SW,221,3.4,3.4,80,0.00,FEW,,0.00,946.0,WeatherDisplay:10.37,2013-02-23 18:01:00,
2013-02-23 13:06:00,79.3,72.6,29.94,WSW,240,9.2,9.2,80,0.00,OVC,,0.00,271.0,WeatherDisplay:10.37,2013-02-23 18:06:00,
2013-02-23 13:21:00,79.6,72.1,29.93,South,182,11.5,11.5,78,0.00,FEW,,0.00,898.0,WeatherDisplay:10.37,2013-02-23 18:21:00,
2013-02-23 13:45:00,78.6,71.9,29.92,South,184,14.9,14.9,80,0.00,OVC,,0.00,223.0,WeatherDisplay:10.37,2013-02-23 18:45:00,
2013-02-23 13:54:00,77.8,71.5,29.92,SE,142,9.2,9.2,81,0.00,OVC,,0.00,309.0,WeatherDisplay:10.37,2013-02-23 18:54:00,
2013-02-23 13:59:00,78.6,72.3,29.92,SW,225,10.3,10.3,81,0.00,OVC,,0.00,417.0,WeatherDisplay:10.37,2013-02-23 18:59:00,
2013-02-23 14:00:00,78.7,71.6,29.91,SSW,211,9.2,9.2,79,0.00,OVC,,0.00,350.0,WeatherDisplay:10.37,2013-02-23 19:00:00,
2013-02-23 14:04:00,79.3,72.2,29.91,SSE,153,8.0,8.0,79,0.00,BKN,,0.00,497.0,WeatherDisplay:10.37,2013-02-23 19:04:00,
2013-02-23 14:09:00,78.8,71.7,29.91,South,169,9.2,9.2,79,0.00,OVC,,0.00,350.0,WeatherDisplay:10.37,2013-02-23 19:09:00,
2013-02-23 14:18:00,79.2,72.1,29.91,SSW,205,6.9,6.9,79,0.00,OVC,,0.00,362.0,WeatherDisplay:10.37,2013-02-23 19:18:00,
2013-02-23 14:43:00,79.3,72.6,29.91,SW,223,5.8,5.8,80,0.00,FEW,,0.00,812.0,WeatherDisplay:10.37,2013-02-23 19:43:00,
2013-02-23 14:55:00,78.6,72.3,29.90,SSW,209,10.3,10.3,81,0.00,CLR,,0.00,796.0,WeatherDisplay:10.37,2013-02-23 19:55:00,
2013-02-23 15:00:00,78.9,72.9,29.90,South,190,8.1,8.1,82,0.00,CLR,,0.00,791.0,WeatherDisplay:10.37,2013-02-23 20:00:00,
2013-02-23 15:05:00,78.7,72.7,29.90,SSE,161,6.9,6.9,82,0.00,CLR,,0.00,749.0,WeatherDisplay:10.37,2013-02-23 20:05:00,
2013-02-23 15:13:00,79.1,72.8,29.90,SW,222,10.3,10.3,81,0.00,FEW,,0.00,679.0,WeatherDisplay:10.37,2013-02-23 20:13:00,
2013-02-23 15:32:00,79.9,72.4,29.89,SW,235,5.8,5.8,78,0.00,CLR,,0.00,626.0,WeatherDisplay:10.37,2013-02-23 20:32:00,
2013-02-23 15:40:00,79.6,72.5,29.89,SSW,201,9.2,9.2,79,0.00,CLR,,0.00,540.0,WeatherDisplay:10.37,2013-02-23 20:40:00,
2013-02-23 15:46:00,79.4,72.7,29.89,SW,230,3.4,3.4,80,0.00,FEW,,0.00,323.0,WeatherDisplay:10.37,2013-02-23 20:46:00,
2013-02-23 15:53:00,79.3,72.2,29.89,WSW,257,3.4,3.4,79,0.00,CLR,,0.00,615.0,WeatherDisplay:10.37,2013-02-23 20:53:00,
2013-02-23 15:58:00,79.6,72.5,29.89,South,182,4.6,4.6,79,0.00,CLR,,0.00,631.0,WeatherDisplay:10.37,2013-02-23 20:58:00,
2013-02-23 16:00:00,77.8,71.5,29.89,SSE,147,9.2,9.2,81,0.00,FEW,,0.00,244.0,WeatherDisplay:10.37,2013-02-23 21:00:00,
2013-02-23 16:03:00,79.3,71.8,29.89,SSE,153,11.5,11.5,78,0.00,CLR,,0.00,605.0,WeatherDisplay:10.37,2013-02-23 21:03:00,
2013-02-23 16:08:00,78.3,71.6,29.89,SE,138,5.8,5.8,80,0.00,FEW,,0.00,401.0,WeatherDisplay:10.37,2013-02-23 21:08:00,
2013-02-23 16:19:00,78.0,72.1,29.89,SSE,158,4.6,4.6,82,0.00,FEW,,0.00,411.0,WeatherDisplay:10.37,2013-02-23 21:19:00,
2013-02-23 16:45:00,76.9,71.7,29.89,SW,221,6.9,6.9,84,0.00,FEW,,0.00,323.0,WeatherDisplay:10.37,2013-02-23 21:45:00,
2013-02-23 16:56:00,77.3,71.7,29.89,SW,229,3.4,3.4,83,0.00,FEW,,0.00,234.0,WeatherDisplay:10.37,2013-02-23 21:56:00,
2013-02-23 17:00:00,75.7,70.9,29.89,SE,146,6.9,7.2,85,0.00,BKN,,0.00,209.0,WeatherDisplay:10.37,2013-02-23 22:00:00,
2013-02-23 17:01:00,76.9,71.7,29.89,South,190,3.4,3.4,84,0.00,FEW,,0.00,211.0,WeatherDisplay:10.37,2013-02-23 22:01:00,
2013-02-23 17:06:00,76.5,71.7,29.89,SE,144,4.6,4.6,85,0.00,SCT,,0.00,153.0,WeatherDisplay:10.37,2013-02-23 22:06:00,
2013-02-23 17:33:00,74.6,70.8,29.89,SW,235,3.4,3.4,88,0.00,BKN,,0.00,65.0,WeatherDisplay:10.37,2013-02-23 22:33:00,
2013-02-23 17:40:00,74.6,71.1,29.89,SSE,163,3.4,3.4,89,0.00,SCT,,0.00,69.0,WeatherDisplay:10.37,2013-02-23 22:40:00,
2013-02-23 17:47:00,74.7,70.9,29.90,SE,127,4.6,4.6,88,0.00,CLR,,0.00,91.0,WeatherDisplay:10.37,2013-02-23 22:47:00,
2013-02-23 17:55:00,74.6,71.1,29.90,WSW,240,6.9,6.9,89,0.00,CLR,,0.00,86.0,WeatherDisplay:10.37,2013-02-23 22:55:00,
2013-02-23 18:00:00,74.2,71.1,29.90,WSW,239,2.3,2.3,90,0.00,CLR,,0.00,62.0,WeatherDisplay:10.37,2013-02-23 23:00:00,
2013-02-23 18:05:00,73.7,70.6,29.90,SW,224,4.6,4.6,90,0.00,CLR,,0.00,42.0,WeatherDisplay:10.37,2013-02-23 23:05:00,
2013-02-23 18:12:00,73.0,70.2,29.90,SW,223,5.8,5.8,91,0.00,CLR,,0.00,23.0,WeatherDisplay:10.37,2013-02-23 23:12:00,
2013-02-23 18:18:00,72.3,69.8,29.91,SW,215,2.3,2.3,92,0.00,OVC,,0.00,14.0,WeatherDisplay:10.37,2013-02-23 23:18:00,
2013-02-23 18:24:00,72.0,69.9,29.91,SW,234,3.4,3.4,93,0.00,OVC,,0.00,9.0,WeatherDisplay:10.37,2013-02-23 23:24:00,
2013-02-23 18:34:00,71.6,69.8,29.91,SSW,209,5.0,5.0,94,0.00,OVC,,0.00,0.0,WeatherDisplay:10.37,2013-02-23 23:34:00,
2013-02-23 18:42:00,71.4,69.6,29.91,WSW,244,3.4,3.4,94,0.00,OVC,,0.00,0.0,WeatherDisplay:10.37,2013-02-23 23:42:00,
2013-02-23 18:47:00,71.3,69.5,29.91,SW,230,5.8,5.8,94,0.00,OVC,,0.00,0.0,WeatherDisplay:10.37,2013-02-23 23:47:00,
2013-02-23 18:56:00,71.0,69.2,29.91,SW,226,4.6,4.6,94,0.00,OVC,,0.00,0.0,WeatherDisplay:10.37,2013-02-23 23:56:00,
2013-02-23 19:00:00,71.1,69.6,29.91,SSE,150,6.0,6.0,95,0.00,CLR,,0.00,0.0,WeatherDisplay:10.37,2013-02-24 00:00:00,
2013-02-23 19:01:00,71.0,69.5,29.91,SW,217,2.3,2.3,95,0.00,CLR,,0.00,0.0,WeatherDisplay:10.37,2013-02-24 00:01:00,
2013-02-23 19:06:00,71.1,69.6,29.91,SSW,209,1.1,1.1,95,0.00,CLR,,0.00,0.0,WeatherDisplay:10.37,2013-02-24 00:06:00,
2013-02-23 19:13:00,71.1,69.6,29.92,SW,219,4.0,4.0,95,0.00,CLR,,0.00,0.0,WeatherDisplay:10.37,2013-02-24 00:13:00,
2013-02-23 19:19:00,71.0,69.5,29.92,SSW,202,2.3,2.3,95,0.00,CLR,,0.00,0.0,WeatherDisplay:10.37,2013-02-24 00:19:00,
2013-02-23 19:30:00,71.0,69.5,29.92,South,170,2.3,2.3,95,0.00,CLR,,0.00,0.0,WeatherDisplay:10.37,2013-02-24 00:30:00,
2013-02-23 19:56:00,70.7,69.2,29.91,SSE,149,3.4,3.4,95,0.00,CLR,,0.00,0.0,WeatherDisplay:10.37,2013-02-24 00:56:00,
2013-02-23 20:00:00,70.5,69.0,29.91,SSW,193,6.9,6.9,95,0.00,CLR,,0.00,0.0,WeatherDisplay:10.37,2013-02-24 01:00:00,
2013-02-23 20:01:00,70.6,69.1,29.91,SSE,149,3.4,3.4,95,0.00,CLR,,0.00,0.0,WeatherDisplay:10.37,2013-02-24 01:01:00,
2013-02-23 20:06:00,70.6,69.1,29.91,SSW,195,2.3,2.3,95,0.00,CLR,,0.00,0.0,WeatherDisplay:10.37,2013-02-24 01:06:00,
2013-02-23 20:14:00,70.6,69.1,29.91,South,171,3.4,3.4,95,0.00,CLR,,0.00,0.0,WeatherDisplay:10.37,2013-02-24 01:14:00,
2013-02-23 20:23:00,70.4,68.9,29.91,SSE,160,3.4,3.4,95,0.00,CLR,,0.00,0.0,WeatherDisplay:10.37,2013-02-24 01:23:00,
2013-02-23 20:28:00,70.3,68.8,29.91,SSE,155,4.6,4.6,95,0.00,CLR,,0.00,0.0,WeatherDisplay:10.37,2013-02-24 01:28:00,
2013-02-23 20:41:00,70.4,69.2,29.91,SSE,147,4.6,4.6,96,0.00,CLR,,0.00,0.0,WeatherDisplay:10.37,2013-02-24 01:41:00,
2013-02-23 20:55:00,70.6,69.4,29.91,SSE,154,5.0,5.0,96,0.00,CLR,,0.00,0.0,WeatherDisplay:10.37,2013-02-24 01:55:00,
2013-02-23 21:00:00,70.7,69.5,29.91,SSE,167,4.6,4.6,96,0.00,CLR,,0.00,0.0,WeatherDisplay:10.37,2013-02-24 02:00:00,
2013-02-23 21:06:00,70.7,69.5,29.92,SSE,151,4.6,4.6,96,0.00,CLR,,0.00,0.0,WeatherDisplay:10.37,2013-02-24 02:06:00,
2013-02-23 21:21:00,70.7,69.5,29.92,SSE,158,3.4,3.4,96,0.00,CLR,,0.00,0.0,WeatherDisplay:10.37,2013-02-24 02:21:00,
2013-02-23 21:29:00,70.6,69.4,29.92,South,186,4.6,4.6,96,0.00,CLR,,0.00,0.0,WeatherDisplay:10.37,2013-02-24 02:29:00,
2013-02-23 21:48:00,70.5,69.3,29.93,SSE,161,2.3,2.3,96,0.00,CLR,,0.00,0.0,WeatherDisplay:10.37,2013-02-24 02:48:00,
2013-02-23 21:56:00,70.4,69.2,29.93,SE,140,1.1,1.1,96,0.00,CLR,,0.00,0.0,WeatherDisplay:10.37,2013-02-24 02:56:00,
2013-02-23 22:00:00,70.3,69.1,29.93,SSW,203,3.4,3.4,96,0.00,CLR,,0.00,0.0,WeatherDisplay:10.37,2013-02-24 03:00:00,
2013-02-23 22:01:00,70.4,69.2,29.93,SSE,152,3.0,3.0,96,0.00,CLR,,0.00,0.0,WeatherDisplay:10.37,2013-02-24 03:01:00,
2013-02-23 22:06:00,70.3,69.1,29.93,SSE,153,5.8,5.8,96,0.00,CLR,,0.00,0.0,WeatherDisplay:10.37,2013-02-24 03:06:00,
2013-02-23 22:23:00,70.2,69.0,29.93,South,188,1.1,1.1,96,0.00,CLR,,0.00,0.0,WeatherDisplay:10.37,2013-02-24 03:23:00,
2013-02-23 22:32:00,70.0,68.8,29.93,South,188,2.3,0.0,96,0.00,CLR,,0.00,0.0,WeatherDisplay:10.37,2013-02-24 03:32:00,
2013-02-23 22:45:00,69.9,69.0,29.94,SSE,153,2.3,2.3,97,0.00,CLR,,0.00,0.0,WeatherDisplay:10.37,2013-02-24 03:45:00,
2013-02-23 22:56:00,69.7,68.8,29.94,SSE,156,3.4,3.4,97,0.00,CLR,,0.00,0.0,WeatherDisplay:10.37,2013-02-24 03:56:00,
2013-02-23 23:00:00,69.6,68.7,29.93,SSE,166,2.3,2.3,97,0.00,CLR,,0.00,0.0,WeatherDisplay:10.37,2013-02-24 04:00:00,
2013-02-23 23:01:00,69.7,68.8,29.94,SE,146,1.0,1.0,97,0.00,CLR,,0.00,0.0,WeatherDisplay:10.37,2013-02-24 04:01:00,
2013-02-23 23:06:00,69.7,68.8,29.93,SSE,167,3.4,3.4,97,0.00,CLR,,0.00,0.0,WeatherDisplay:10.37,2013-02-24 04:06:00,
2013-02-23 23:27:00,69.5,68.6,29.92,South,175,3.4,3.4,97,0.00,CLR,,0.00,0.0,WeatherDisplay:10.37,2013-02-24 04:27:00,
2013-02-23 23:32:00,69.5,68.6,29.92,SSE,148,6.0,6.0,97,0.00,CLR,,0.00,0.0,WeatherDisplay:10.37,2013-02-24 04:32:00,
2013-02-23 23:39:00,69.4,68.5,29.91,SSE,157,6.9,6.9,97,0.00,CLR,,0.00,0.0,WeatherDisplay:10.37,2013-02-24 04:39:00,
2013-02-23 23:50:00,69.4,68.5,29.92,SE,141,2.3,2.3,97,0.00,CLR,,0.00,0.0,WeatherDisplay:10.37,2013-02-24 04:50:00,
2013-02-23 23:56:00,69.2,68.3,29.92,South,186,1.1,0.0,97,0.00,CLR,,0.00,0.0,WeatherDisplay:10.37,2013-02-24 04:56:00,